Home > Weather > Chittorgarh > Past weeks

Flag for India Weather for the Past 2 Weeks in Chittorgarh, Rajasthan, India

Now
54 °F

Haze.


Feels Like: 54 °F
Forecast: 53 / 79 °F
Wind: No wind

Location: Jaipur / Sanganer

Current Time: Feb 10, 2016 at 9:02:04 AM

Latest Report: Feb 10, 2016 at 7:00 AM


Visibility: 1 mi

Pressure: 29.95 "Hg (28.13 "Hg at 524m altitude)

Humidity: 72%

Dew point: 45 °F

Location of ChittorgarhLocation

Historic Weather in Chittorgarh — Graph

°F

Chittorgarh Temperature Yesterday

Maximum temperature yesterday: 75 °F (at 3:30 PM)
Minimum temperature yesterday: 50 °F (at 7:00 AM)
Average temperature yesterday: 66 °F

High & Low Weather Summary for the Past Weeks

 TemperatureHumidityPressure
High82 °F (Jan 30, 4:00 PM)94% (Jan 30, 6:00 AM)30.18 "Hg (Jan 30, 6:00 AM)
Low48 °F (Feb 3, 6:00 AM)14% (Feb 4, 2:00 PM)29.80 "Hg (Feb 4, 9:00 PM)
Average66 °F46%30.03 "Hg
* Reported Jan 26 6:30 AM — Feb 10 7:00 AM, Chittorgarh, Weather by CustomWeather, © 2016

Note: Actual official high and low records may vary slightly from our data, if they occured in-between our weather recording intervals... More about our weather records

Advertising

Chittorgarh Weather History for the Previous 24 Hours

 ConditionsComfort  
Time TempWeatherWind HumidityBarometerVisibility
7:00 AM
Wed, Feb 10
54 °FHaze.No wind72%29.95 "Hg1 mi
6:00 AM54 °FHaze.No wind72%29.92 "Hg1 mi
5:00 AM57 °FHaze.No wind63%29.92 "Hg1 mi
2:00 AM61 °FHaze.5 mph59%29.95 "Hg1 mi
1:00 AM59 °FHaze.2 mph59%29.95 "Hg1 mi
12:00 AM61 °FHaze.1 mph52%29.98 "Hg1 mi
11:00 PM
Tue, Feb 9
63 °FHaze.3 mph45%29.98 "Hg1 mi
10:00 PM63 °FHaze.3 mph45%29.98 "Hg1 mi
9:00 PM64 °FHaze.No wind46%29.98 "Hg1 mi
8:00 PM64 °FHaze.2 mph40%29.98 "Hg1 mi
7:00 PM70 °FHaze.3 mph35%29.95 "Hg2 mi
6:30 PM72 °FHaze.3 mph31%29.95 "Hg2 mi
6:00 PM73 °FHaze.3 mph29%29.95 "Hg2 mi
5:00 PM75 °FHaze.3 mph27%29.95 "Hg2 mi
4:00 PM75 °FHaze.7 mph27%29.95 "Hg2 mi
3:30 PM75 °FHaze.5 mph27%29.98 "Hg2 mi
2:30 PM73 °FHaze.3 mph29%30.01 "Hg2 mi
2:00 PM73 °FHaze.6 mph29%30.01 "Hg2 mi
1:00 PM72 °FHaze.6 mph36%30.04 "Hg1 mi
12:00 PM70 °FClear.6 mph38%30.07 "Hg1 mi
11:00 AM68 °FClear.5 mph40%30.09 "Hg1 mi
10:00 AM66 °FClear.3 mph43%30.09 "Hg1 mi
9:00 AM61 °FClear.1 mph55%30.07 "Hg1 mi
Weather by CustomWeather, © 2016

See weather overviewHow to use our weather pages